This is the latest recevied weather packets stored in our database for station/object N3MFL. If no packets are shown the sender has not sent any weather packets the latest 10 day(s).
| Time | Temp. | Humidity | Pressure | Rain* | Wind** | Luminosity | Snow |
|---|---|---|---|---|---|---|---|
| 1777754098 | 11.11° C | 82% | 1011.2 hPa | 0 mm | - | 81 W/m² | - |
| 1777753794 | 11.11° C | 82% | 1011.3 hPa | 0 mm | - | 87 W/m² | - |
| 1777753491 | 11.11° C | 81% | 1011.5 hPa | 0 mm | - | 79 W/m² | - |
| 1777753189 | 11.11° C | 81% | 1011.4 hPa | 0 mm | - | 94 W/m² | - |
| 1777752885 | 11.11° C | 81% | 1011.4 hPa | 0 mm | - | 100 W/m² | - |
| 1777752582 | 11.11° C | 81% | 1011.4 hPa | 0 mm | - | 84 W/m² | - |
| 1777752277 | 11.11° C | 82% | 1011.5 hPa | 0 mm | - | 86 W/m² | - |
| 1777751975 | 11.11° C | 82% | 1011.6 hPa | 0 mm | - | 73 W/m² | - |
| 1777751369 | 11.11° C | 81% | 1011.7 hPa | 0 mm | - | 84 W/m² | - |
| 1777751066 | 11.67° C | 81% | 1011.8 hPa | 0 mm | - | 107 W/m² | - |
| 1777750761 | 11.67° C | 80% | 1011.7 hPa | 0 mm | - | 165 W/m² | - |
| 1777750459 | 11.67° C | 80% | 1011.8 hPa | 0 mm | - | 219 W/m² | - |
| 1777750154 | 11.67° C | 80% | 1011.9 hPa | 0 mm | - | 245 W/m² | - |
| 1777749851 | 11.11° C | 80% | 1012 hPa | 0 mm | - | 168 W/m² | - |
| 1777749548 | 11.11° C | 80% | 1012 hPa | 0 mm | - | 196 W/m² | - |
| 1777749246 | 11.11° C | 78% | 1012.2 hPa | 0 mm | - | 140 W/m² | - |
| 1777748944 | 11.11° C | 76% | 1012.3 hPa | 0 mm | - | 149 W/m² | - |
| 1777748641 | 11.11° C | 74% | 1012.1 hPa | 0 mm | - | 102 W/m² | - |
| 1777747730 | 11.11° C | 74% | 1012.2 hPa | 0 mm | - | 98 W/m² | - |
| 1777747425 | 11.67° C | 76% | 1012.5 hPa | 0 mm | - | 71 W/m² | - |
| 1777747122 | 11.67° C | 77% | 1012.3 hPa | 0 mm | - | 115 W/m² | - |
| 1777746818 | 11.67° C | 78% | 1012.3 hPa | 0 mm | - | 152 W/m² | - |
| 1777746513 | 12.22° C | 77% | 1012.4 hPa | 0 mm | - | 177 W/m² | - |
| 1777745302 | 11.67° C | 74% | 1012.3 hPa | 0 mm | - | 123 W/m² | - |
| 1777742267 | 11.11° C | 81% | 1012.5 hPa | 0 mm | - | 86 W/m² | - |
* Rain latest hour (hover to see other rain measurements)
** Current wind speed in m/s (hover to see current wind gust speed)